,,PA_Meas_PMT16A,,PR_Meas_QMR101_102,,RH_Meas_QMH101,,SR_Meas_QMS101,,TA_Meas_QMH101,,GenWind,,GenWind,
time,status,PA,status,PR,status,RH,status,SR,status,TA,status,DirAvg,status,SpdAvg,
2013-02-22, 00:00:04,VALID,918.042,VALID,0,VALID,96.0398,VALID,0,VALID,18.2447,VALID,144,VALID,0,
2013-02-22, 00:01:04,VALID,918.002,VALID,0,VALID,96.0627,VALID,0,VALID,18.2238,VALID,144,VALID,0,
2013-02-22, 00:02:04,VALID,918.004,VALID,0,VALID,96.1541,VALID,0,VALID,18.2837,VALID,144,VALID,0,
2013-02-22, 00:03:04,VALID,917.991,VALID,0,VALID,96.1694,VALID,0,VALID,18.2433,VALID,144,VALID,0,
2013-02-22, 00:04:04,VALID,917.992,VALID,0,VALID,96.2151,VALID,0,VALID,18.2238,VALID,144,VALID,0,
2013-02-22, 00:05:04,VALID,917.989,VALID,0,VALID,96.2761,VALID,0,VALID,18.2433,VALID,144,VALID,0,
2013-02-22, 00:06:04,VALID,917.947,VALID,0,VALID,96.3371,VALID,0,VALID,18.2642,VALID,144,VALID,0,
2013-02-22, 00:07:04,VALID,917.926,VALID,0,VALID,96.3676,VALID,0,VALID,18.2823,VALID,144,VALID,0,
2013-02-22, 00:08:04,VALID,917.895,VALID,0,VALID,96.3905,VALID,0,VALID,18.2615,VALID,141,VALID,0,
2013-02-22, 00:09:04,VALID,917.835,VALID,0,VALID,96.3981,VALID,0,VALID,18.2615,VALID,141,VALID,0,
2013-02-22, 00:10:04,VALID,917.806,VALID,0,VALID,96.3829,VALID,0,VALID,18.242,VALID,124,VALID,0,
2013-02-22, 00:11:04,VALID,917.779,VALID,0,VALID,96.421,VALID,0,VALID,18.242,VALID,125,VALID,0,
2013-02-22, 00:12:04,VALID,917.777,VALID,0,VALID,96.4133,VALID,0,VALID,18.242,VALID,125,VALID,0,
2013-02-22, 00:13:04,VALID,917.725,VALID,0,VALID,96.4057,VALID,0.107441,VALID,18.2225,VALID,125,VALID,0,
2013-02-22, 00:14:04,VALID,917.728,VALID,0,VALID,96.421,VALID,0,VALID,18.203,VALID,124,VALID,0,
2013-02-22, 00:15:04,VALID,917.692,VALID,0,VALID,96.4133,VALID,0,VALID,18.2044,VALID,125,VALID,0,
2013-02-22, 00:16:04,VALID,917.694,VALID,0,VALID,96.4057,VALID,0,VALID,18.164,VALID,125,VALID,0,
2013-02-22, 00:17:04,VALID,917.672,VALID,0,VALID,96.3981,VALID,0,VALID,18.1445,VALID,125,VALID,0,
2013-02-22, 00:18:04,VALID,917.663,VALID,0,VALID,96.3905,VALID,0,VALID,18.1654,VALID,125,VALID,0,
2013-02-22, 00:19:04,VALID,917.652,VALID,0,VALID,96.4057,VALID,0,VALID,18.1654,VALID,125,VALID,0,
2013-02-22, 00:20:04,VALID,917.655,VALID,0,VALID,96.4057,VALID,0,VALID,18.1654,VALID,128,VALID,0,
2013-02-22, 00:21:04,VALID,917.652,VALID,0,VALID,96.3752,VALID,0,VALID,18.164,VALID,129,VALID,0,
2013-02-22, 00:22:04,VALID,917.603,VALID,0,VALID,96.3524,VALID,0,VALID,18.1445,VALID,129,VALID,0,
2013-02-22, 00:23:04,VALID,917.628,VALID,0,VALID,96.3295,VALID,0,VALID,18.125,VALID,129,VALID,0,
2013-02-22, 00:24:04,VALID,917.617,VALID,0,VALID,96.3219,VALID,0,VALID,18.1459,VALID,129,VALID,0,
2013-02-22, 00:25:04,VALID,917.57,VALID,0,VALID,96.3219,VALID,0,VALID,18.1445,VALID,129,VALID,0,
2013-02-22, 00:26:04,VALID,917.59,VALID,0,VALID,96.3219,VALID,0.107441,VALID,18.1849,VALID,129,VALID,0,
2013-02-22, 00:27:04,VALID,917.58,VALID,0,VALID,96.3524,VALID,0,VALID,18.2044,VALID,129,VALID,0,
2013-02-22, 00:28:04,VALID,917.547,VALID,0,VALID,96.3447,VALID,0,VALID,18.2433,VALID,134,VALID,0,
2013-02-22, 00:29:04,VALID,917.517,VALID,0,VALID,96.3295,VALID,0,VALID,18.2628,VALID,138,VALID,0,
2013-02-22, 00:30:04,VALID,917.52,VALID,0,VALID,96.2533,VALID,0,VALID,18.2615,VALID,138,VALID,0,
2013-02-22, 00:31:04,VALID,917.475,VALID,0,VALID,96.1846,VALID,0,VALID,18.2615,VALID,138,VALID,0,
2013-02-22, 00:32:04,VALID,917.469,VALID,0,VALID,96.1389,VALID,0,VALID,18.3018,VALID,138,VALID,0,
2013-02-22, 00:33:04,VALID,917.454,VALID,0,VALID,96.0398,VALID,0,VALID,18.3018,VALID,138,VALID,0,
2013-02-22, 00:34:04,VALID,917.462,VALID,0,VALID,96.0017,VALID,0.107441,VALID,18.2809,VALID,138,VALID,0,
2013-02-22, 00:35:04,VALID,917.438,VALID,0,VALID,95.9407,VALID,0,VALID,18.2809,VALID,138,VALID,0,
2013-02-22, 00:36:04,VALID,917.446,VALID,0,VALID,95.8568,VALID,0,VALID,18.3004,VALID,138,VALID,0,
2013-02-22, 00:37:04,VALID,917.401,VALID,0,VALID,95.7806,VALID,0.107441,VALID,18.3213,VALID,138,VALID,0,
2013-02-22, 00:38:04,VALID,917.373,VALID,0,VALID,95.7349,VALID,0,VALID,18.3018,VALID,138,VALID,0,
2013-02-22, 00:39:04,VALID,917.379,VALID,0,VALID,95.6586,VALID,0,VALID,18.3018,VALID,138,VALID,0,
2013-02-22, 00:40:04,VALID,917.363,VALID,0,VALID,95.6129,VALID,0,VALID,18.3032,VALID,138,VALID,0,
2013-02-22, 00:41:04,VALID,917.317,VALID,0,VALID,95.5824,VALID,0,VALID,18.2823,VALID,138,VALID,0,
2013-02-22, 00:42:04,VALID,917.299,VALID,0,VALID,95.5367,VALID,0,VALID,18.2628,VALID,138,VALID,0,
2013-02-22, 00:43:04,VALID,917.245,VALID,0,VALID,95.468,VALID,0,VALID,18.2823,VALID,138,VALID,0,
2013-02-22, 00:44:04,VALID,917.269,VALID,0,VALID,95.3613,VALID,0,VALID,18.3018,VALID,138,VALID,0,
2013-02-22, 00:45:04,VALID,917.23,VALID,0,VALID,95.2927,VALID,0,VALID,18.3018,VALID,138,VALID,0,
2013-02-22, 00:46:04,VALID,917.226,VALID,0,VALID,95.186,VALID,0,VALID,18.3213,VALID,138,VALID,0,
2013-02-22, 00:47:04,VALID,917.222,VALID,0,VALID,95.0945,VALID,0,VALID,18.3213,VALID,138,VALID,0,
2013-02-22, 00:48:04,VALID,917.245,VALID,0,VALID,95.0335,VALID,0,VALID,18.3227,VALID,138,VALID,0,
2013-02-22, 00:49:04,VALID,917.214,VALID,0,VALID,95.003,VALID,0,VALID,18.3227,VALID,138,VALID,0,
2013-02-22, 00:50:04,VALID,917.208,VALID,0,VALID,94.881,VALID,0,VALID,18.2628,VALID,138,VALID,0,
2013-02-22, 00:51:04,VALID,917.173,VALID,0,VALID,94.8582,VALID,0,VALID,18.2433,VALID,138,VALID,0,
2013-02-22, 00:52:04,VALID,917.153,VALID,0,VALID,94.9573,VALID,0,VALID,18.2044,VALID,138,VALID,0,
2013-02-22, 00:53:04,VALID,917.172,VALID,0,VALID,95.0488,VALID,0,VALID,18.2252,VALID,138,VALID,0,
2013-02-22, 00:54:04,VALID,917.179,VALID,0,VALID,95.1326,VALID,0,VALID,18.2044,VALID,138,VALID,0,
2013-02-22, 00:55:04,VALID,917.21,VALID,0,VALID,95.1936,VALID,0,VALID,18.2044,VALID,138,VALID,0,
2013-02-22, 00:56:04,VALID,917.2,VALID,0,VALID,95.2698,VALID,0,VALID,18.1849,VALID,138,VALID,0,
2013-02-22, 00:57:04,VALID,917.186,VALID,0,VALID,95.3156,VALID,0,VALID,18.1654,VALID,138,VALID,0,
2013-02-22, 00:58:04,VALID,917.211,VALID,0,VALID,95.4071,VALID,0,VALID,18.1654,VALID,138,VALID,0,
2013-02-22, 00:59:04,VALID,917.198,VALID,0,VALID,95.4528,VALID,0,VALID,18.2044,VALID,138,VALID,0,
2013-02-22, 01:00:04,VALID,917.182,VALID,0,VALID,95.5595,VALID,0,VALID,18.2044,VALID,138,VALID,0,
2013-02-22, 01:01:04,VALID,917.18,VALID,0,VALID,95.5976,VALID,0,VALID,18.2238,VALID,138,VALID,0,
2013-02-22, 01:02:04,VALID,917.176,VALID,0,VALID,95.6205,VALID,0,VALID,18.2044,VALID,138,VALID,0,
2013-02-22, 01:03:04,VALID,917.14,VALID,0,VALID,95.7044,VALID,0,VALID,18.2044,VALID,138,VALID,0,
2013-02-22, 01:04:04,VALID,917.162,VALID,0,VALID,95.8111,VALID,0,VALID,18.2447,VALID,138,VALID,0,
2013-02-22, 01:05:04,VALID,917.119,VALID,0,VALID,95.8492,VALID,0,VALID,18.2447,VALID,138,VALID,0,
2013-02-22, 01:06:04,VALID,917.126,VALID,0,VALID,95.9026,VALID,0,VALID,18.2447,VALID,138,VALID,0,
2013-02-22, 01:07:04,VALID,917.09,VALID,0,VALID,95.9407,VALID,0,VALID,18.2433,VALID,138,VALID,0,
2013-02-22, 01:08:04,VALID,917.105,VALID,0,VALID,95.9559,VALID,0,VALID,18.242,VALID,138,VALID,0,
2013-02-22, 01:09:04,VALID,917.099,VALID,0,VALID,95.9483,VALID,0,VALID,18.242,VALID,138,VALID,0,
2013-02-22, 01:10:04,VALID,917.096,VALID,0,VALID,95.9483,VALID,0,VALID,18.2615,VALID,138,VALID,0,
2013-02-22, 01:11:04,VALID,917.115,VALID,0,VALID,95.9178,VALID,0,VALID,18.2823,VALID,138,VALID,0,
2013-02-22, 01:12:04,VALID,917.123,VALID,0,VALID,95.9102,VALID,0,VALID,18.2615,VALID,138,VALID,0,
2013-02-22, 01:13:04,VALID,917.131,VALID,0,VALID,95.895,VALID,0,VALID,18.2615,VALID,138,VALID,0,
2013-02-22, 01:14:04,VALID,917.094,VALID,0,VALID,95.9178,VALID,0,VALID,18.3018,VALID,143,VALID,0,
2013-02-22, 01:15:04,VALID,917.116,VALID,0,VALID,95.9254,VALID,0,VALID,18.3004,VALID,143,VALID,0,
2013-02-22, 01:16:04,VALID,917.105,VALID,0,VALID,95.9331,VALID,0,VALID,18.3018,VALID,143,VALID,0,
2013-02-22, 01:17:04,VALID,917.074,VALID,0,VALID,95.9102,VALID,0,VALID,18.2809,VALID,143,VALID,0,
2013-02-22, 01:18:04,VALID,917.051,VALID,0,VALID,95.8873,VALID,0,VALID,18.2809,VALID,143,VALID,0,
2013-02-22, 01:19:04,VALID,917.062,VALID,0,VALID,95.895,VALID,0,VALID,18.3018,VALID,143,VALID,0,
2013-02-22, 01:20:04,VALID,917.037,VALID,0,VALID,95.8873,VALID,0,VALID,18.3018,VALID,143,VALID,0,
2013-02-22, 01:21:04,VALID,917.028,VALID,0,VALID,95.8645,VALID,0,VALID,18.3213,VALID,143,VALID,0,
2013-02-22, 01:22:04,VALID,917.011,VALID,0,VALID,95.9026,VALID,0,VALID,18.3004,VALID,143,VALID,0,
2013-02-22, 01:23:04,VALID,917.003,VALID,0,VALID,95.9254,VALID,0,VALID,18.2823,VALID,143,VALID,0,
2013-02-22, 01:24:04,VALID,917.011,VALID,0,VALID,95.9331,VALID,0,VALID,18.3032,VALID,143,VALID,0,
2013-02-22, 01:25:04,VALID,916.969,VALID,0,VALID,95.895,VALID,0,VALID,18.3032,VALID,143,VALID,0,
2013-02-22, 01:26:04,VALID,917.017,VALID,0,VALID,95.8645,VALID,0,VALID,18.2837,VALID,143,VALID,0,
2013-02-22, 01:27:04,VALID,916.958,VALID,0,VALID,95.8568,VALID,0,VALID,18.2823,VALID,143,VALID,0,
2013-02-22, 01:28:04,VALID,916.971,VALID,0,VALID,95.8263,VALID,0,VALID,18.3032,VALID,143,VALID,0,
2013-02-22, 01:29:04,VALID,916.974,VALID,0,VALID,95.7882,VALID,0,VALID,18.3018,VALID,140,VALID,0,
2013-02-22, 01:30:04,VALID,916.95,VALID,0,VALID,95.6891,VALID,0,VALID,18.3213,VALID,140,VALID,0,
2013-02-22, 01:31:04,VALID,916.969,VALID,0,VALID,95.5976,VALID,0,VALID,18.3213,VALID,140,VALID,0,
2013-02-22, 01:32:04,VALID,916.957,VALID,0,VALID,95.4528,VALID,0,VALID,18.3213,VALID,140,VALID,0,
2013-02-22, 01:33:04,VALID,916.941,VALID,0,VALID,95.3156,VALID,0,VALID,18.3617,VALID,140,VALID,0,
2013-02-22, 01:34:04,VALID,916.951,VALID,0,VALID,95.186,VALID,0,VALID,18.3603,VALID,140,VALID,0,
2013-02-22, 01:35:04,VALID,916.948,VALID,0,VALID,95.0411,VALID,0,VALID,18.3798,VALID,140,VALID,0,
2013-02-22, 01:36:04,VALID,916.964,VALID,0,VALID,94.9268,VALID,0,VALID,18.3798,VALID,140,VALID,0,
2013-02-22, 01:37:04,VALID,916.971,VALID,0,VALID,94.8048,VALID,0,VALID,18.3798,VALID,140,VALID,0,
2013-02-22, 01:38:04,VALID,916.971,VALID,0,VALID,94.6828,VALID,0.107441,VALID,18.3784,VALID,137,VALID,0,
2013-02-22, 01:39:04,VALID,916.966,VALID,0,VALID,94.599,VALID,0,VALID,18.3589,VALID,130,VALID,0,
2013-02-22, 01:40:04,VALID,916.987,VALID,0,VALID,94.5304,VALID,0,VALID,18.3603,VALID,131,VALID,0,
2013-02-22, 01:41:04,VALID,916.973,VALID,0,VALID,94.6218,VALID,0,VALID,18.3004,VALID,131,VALID,0,
2013-02-22, 01:42:04,VALID,916.973,VALID,0,VALID,94.7286,VALID,0,VALID,18.2809,VALID,130,VALID,0,
2013-02-22, 01:43:04,VALID,916.958,VALID,0,VALID,94.8353,VALID,0,VALID,18.2809,VALID,130,VALID,0,
2013-02-22, 01:44:04,VALID,916.956,VALID,0,VALID,94.9192,VALID,0,VALID,18.3018,VALID,130,VALID,0,
2013-02-22, 01:45:04,VALID,916.965,VALID,0,VALID,94.942,VALID,0,VALID,18.3018,VALID,131,VALID,0,
2013-02-22, 01:46:04,VALID,916.97,VALID,0,VALID,94.9649,VALID,0,VALID,18.2809,VALID,131,VALID,0,
2013-02-22, 01:47:04,VALID,916.953,VALID,0,VALID,94.9954,VALID,0,VALID,18.2809,VALID,130,VALID,0,
2013-02-22, 01:48:04,VALID,916.971,VALID,0,VALID,95.0564,VALID,0,VALID,18.2809,VALID,131,VALID,0,
2013-02-22, 01:49:04,VALID,916.938,VALID,0,VALID,95.064,VALID,0,VALID,18.2823,VALID,131,VALID,0,
2013-02-22, 01:50:04,VALID,916.934,VALID,0,VALID,95.0716,VALID,0,VALID,18.2823,VALID,131,VALID,0,
2013-02-22, 01:51:04,VALID,916.918,VALID,0,VALID,95.1326,VALID,0,VALID,18.242,VALID,160,VALID,0,
2013-02-22, 01:52:04,VALID,916.9,VALID,0,VALID,95.2546,VALID,0,VALID,18.2628,VALID,159,VALID,0,
2013-02-22, 01:53:04,VALID,916.894,VALID,0,VALID,95.3994,VALID,0.107441,VALID,18.242,VALID,159,VALID,0,
2013-02-22, 01:54:04,VALID,916.88,VALID,0,VALID,95.5367,VALID,0.107441,VALID,18.2211,VALID,159,VALID,0,
2013-02-22, 01:55:04,VALID,916.891,VALID,0,VALID,95.6662,VALID,0.107441,VALID,18.2225,VALID,159,VALID,0,
2013-02-22, 01:56:04,VALID,916.89,VALID,0,VALID,95.7425,VALID,0,VALID,18.203,VALID,159,VALID,0,
2013-02-22, 01:57:04,VALID,916.874,VALID,0,VALID,95.8416,VALID,0.107441,VALID,18.1431,VALID,159,VALID,0,
2013-02-22, 01:58:04,VALID,916.829,VALID,0,VALID,95.8797,VALID,0,VALID,18.1654,VALID,159,VALID,0,
2013-02-22, 01:59:04,VALID,916.809,VALID,0,VALID,95.9178,VALID,0.107441,VALID,18.1041,VALID,159,VALID,0,
2013-02-22, 02:00:04,VALID,916.803,VALID,0,VALID,95.9712,VALID,0.107441,VALID,18.1055,VALID,159,VALID,0,
2013-02-22, 02:01:04,VALID,916.778,VALID,0,VALID,96.0245,VALID,0.107441,VALID,18.086,VALID,159,VALID,0,
2013-02-22, 02:02:04,VALID,916.737,VALID,0,VALID,96.0169,VALID,0,VALID,18.0665,VALID,159,VALID,0,
2013-02-22, 02:03:04,VALID,916.724,VALID,0,VALID,96.0322,VALID,0,VALID,18.047,VALID,159,VALID,0,
2013-02-22, 02:04:04,VALID,916.704,VALID,0,VALID,96.1008,VALID,0,VALID,18.008,VALID,159,VALID,0,
2013-02-22, 02:05:04,VALID,916.706,VALID,0,VALID,96.1465,VALID,0,VALID,18.0094,VALID,159,VALID,0,
2013-02-22, 02:06:04,VALID,916.677,VALID,0,VALID,96.2228,VALID,0.107441,VALID,17.9886,VALID,159,VALID,0,
2013-02-22, 02:07:04,VALID,916.661,VALID,0,VALID,96.238,VALID,0,VALID,17.9691,VALID,159,VALID,0,
2013-02-22, 02:08:04,VALID,916.639,VALID,0,VALID,96.299,VALID,0,VALID,17.9496,VALID,159,VALID,0,
2013-02-22, 02:09:04,VALID,916.603,VALID,0,VALID,96.2914,VALID,0,VALID,17.9704,VALID,125,VALID,0,
2013-02-22, 02:10:04,VALID,916.59,VALID,0,VALID,96.3295,VALID,0,VALID,17.9301,VALID,119,VALID,0,
2013-02-22, 02:11:04,VALID,916.565,VALID,0,VALID,96.3447,VALID,0,VALID,17.9704,VALID,119,VALID,0,
2013-02-22, 02:12:04,VALID,916.526,VALID,0,VALID,96.36,VALID,0,VALID,17.9301,VALID,119,VALID,0,
2013-02-22, 02:13:04,VALID,916.502,VALID,0,VALID,96.3676,VALID,0,VALID,17.9496,VALID,119,VALID,0,
2013-02-22, 02:14:04,VALID,916.475,VALID,0,VALID,96.3676,VALID,0,VALID,17.9496,VALID,119,VALID,0,
2013-02-22, 02:15:04,VALID,916.474,VALID,0,VALID,96.3219,VALID,0.107441,VALID,17.9496,VALID,119,VALID,0,
2013-02-22, 02:16:04,VALID,916.437,VALID,0,VALID,96.3371,VALID,0.107441,VALID,17.9301,VALID,119,VALID,0,
2013-02-22, 02:17:04,VALID,916.423,VALID,0,VALID,96.3676,VALID,0,VALID,17.9301,VALID,119,VALID,0,
2013-02-22, 02:18:04,VALID,916.45,VALID,0,VALID,96.3752,VALID,0,VALID,17.9106,VALID,119,VALID,0,
2013-02-22, 02:19:04,VALID,916.426,VALID,0,VALID,96.36,VALID,0,VALID,17.9106,VALID,119,VALID,0,
2013-02-22, 02:20:04,VALID,916.431,VALID,0,VALID,96.3676,VALID,0,VALID,17.9106,VALID,119,VALID,0,
2013-02-22, 02:21:04,VALID,916.465,VALID,0,VALID,96.4133,VALID,0.107441,VALID,17.9301,VALID,119,VALID,0,
2013-02-22, 02:22:04,VALID,916.441,VALID,0,VALID,96.3981,VALID,0.107441,VALID,17.9301,VALID,119,VALID,0,
2013-02-22, 02:23:04,VALID,916.44,VALID,0,VALID,96.3981,VALID,0,VALID,17.9301,VALID,119,VALID,0,
2013-02-22, 02:24:04,VALID,916.434,VALID,0,VALID,96.4438,VALID,0.107441,VALID,18.0094,VALID,119,VALID,0,
2013-02-22, 02:25:04,VALID,916.43,VALID,0,VALID,96.3752,VALID,0.107441,VALID,18.047,VALID,119,VALID,0,
2013-02-22, 02:26:04,VALID,916.435,VALID,0,VALID,96.1694,VALID,0,VALID,18.1055,VALID,119,VALID,0,
2013-02-22, 02:27:04,VALID,916.419,VALID,0,VALID,96.0627,VALID,0,VALID,18.125,VALID,119,VALID,0,
2013-02-22, 02:28:04,VALID,916.355,VALID,0,VALID,95.8721,VALID,0,VALID,18.1445,VALID,119,VALID,0,
2013-02-22, 02:29:04,VALID,916.391,VALID,0,VALID,95.7577,VALID,0.107441,VALID,18.1445,VALID,119,VALID,0,
2013-02-22, 02:30:04,VALID,916.363,VALID,0,VALID,95.6434,VALID,0,VALID,18.1626,VALID,119,VALID,0,
2013-02-22, 02:31:04,VALID,916.375,VALID,0,VALID,95.468,VALID,0.107441,VALID,18.203,VALID,119,VALID,0,
2013-02-22, 02:32:04,VALID,916.352,VALID,0,VALID,95.3308,VALID,0,VALID,18.203,VALID,119,VALID,0,
2013-02-22, 02:33:04,VALID,916.342,VALID,0,VALID,95.2927,VALID,0,VALID,18.2225,VALID,119,VALID,0,
2013-02-22, 02:34:04,VALID,916.334,VALID,0,VALID,95.2165,VALID,0.107441,VALID,18.2615,VALID,119,VALID,0,
2013-02-22, 02:35:04,VALID,916.327,VALID,0,VALID,95.064,VALID,0.107441,VALID,18.3213,VALID,119,VALID,0,
2013-02-22, 02:36:04,VALID,916.292,VALID,0,VALID,94.8734,VALID,0.107441,VALID,18.3185,VALID,119,VALID,0,
2013-02-22, 02:37:04,VALID,916.293,VALID,0,VALID,94.6447,VALID,0.107441,VALID,18.3589,VALID,119,VALID,0,
2013-02-22, 02:38:04,VALID,916.292,VALID,0,VALID,94.4389,VALID,0,VALID,18.3979,VALID,119,VALID,0,
2013-02-22, 02:39:04,VALID,916.303,VALID,0,VALID,94.233,VALID,0,VALID,18.4174,VALID,119,VALID,0,
2013-02-22, 02:40:04,VALID,916.273,VALID,0,VALID,93.9738,VALID,0.107441,VALID,18.4759,VALID,119,VALID,0,
2013-02-22, 02:41:04,VALID,916.279,VALID,0,VALID,93.7147,VALID,0,VALID,18.4759,VALID,119,VALID,0,
2013-02-22, 02:42:04,VALID,916.265,VALID,0,VALID,93.5088,VALID,0,VALID,18.494,VALID,119,VALID,0,
2013-02-22, 02:43:04,VALID,916.23,VALID,0,VALID,93.3868,VALID,0.107441,VALID,18.4954,VALID,119,VALID,0,
2013-02-22, 02:44:04,VALID,916.261,VALID,0,VALID,93.3335,VALID,0,VALID,18.4369,VALID,121,VALID,0,
2013-02-22, 02:45:04,VALID,916.269,VALID,0,VALID,93.3716,VALID,0,VALID,18.3798,VALID,128,VALID,0,
2013-02-22, 02:46:04,VALID,916.256,VALID,0,VALID,93.6003,VALID,0.107441,VALID,18.2809,VALID,136,VALID,0,
2013-02-22, 02:47:04,VALID,916.242,VALID,0,VALID,93.9205,VALID,0,VALID,18.242,VALID,136,VALID,0,
2013-02-22, 02:48:04,VALID,916.226,VALID,0,VALID,94.1873,VALID,0,VALID,18.2225,VALID,136,VALID,0,
2013-02-22, 02:49:04,VALID,916.204,VALID,0,VALID,94.3703,VALID,0.107441,VALID,18.164,VALID,136,VALID,0,
2013-02-22, 02:50:04,VALID,916.188,VALID,0,VALID,94.5532,VALID,0,VALID,18.1445,VALID,136,VALID,0,
2013-02-22, 02:51:04,VALID,916.188,VALID,0,VALID,94.6981,VALID,0,VALID,18.125,VALID,136,VALID,0,
2013-02-22, 02:52:04,VALID,916.184,VALID,0,VALID,94.8277,VALID,0.107441,VALID,18.1055,VALID,136,VALID,0,
2013-02-22, 02:53:04,VALID,916.162,VALID,0,VALID,94.7362,VALID,0,VALID,18.0679,VALID,136,VALID,0,
2013-02-22, 02:54:04,VALID,916.144,VALID,0,VALID,94.599,VALID,0,VALID,17.9899,VALID,136,VALID,0,
2013-02-22, 02:55:04,VALID,916.158,VALID,0,VALID,94.7514,VALID,0.107441,VALID,17.9509,VALID,136,VALID,0,
2013-02-22, 02:56:04,VALID,916.095,VALID,0,VALID,95.0716,VALID,0,VALID,17.9106,VALID,119,VALID,0,
2013-02-22, 02:57:04,VALID,916.075,VALID,0,VALID,95.2622,VALID,0,VALID,17.9314,VALID,119,VALID,0,
2013-02-22, 02:58:04,VALID,916.05,VALID,0,VALID,95.3766,VALID,0,VALID,17.8911,VALID,119,VALID,0,
2013-02-22, 02:59:04,VALID,916.025,VALID,0,VALID,95.5367,VALID,0,VALID,17.9119,VALID,119,VALID,0,
2013-02-22, 03:00:04,VALID,915.985,VALID,0,VALID,95.6739,VALID,0,VALID,17.9314,VALID,119,VALID,0,
2013-02-22, 03:01:04,VALID,916.019,VALID,0,VALID,95.7577,VALID,0,VALID,17.9119,VALID,119,VALID,0,
2013-02-22, 03:02:04,VALID,915.969,VALID,0,VALID,95.7425,VALID,0,VALID,17.8925,VALID,119,VALID,0,
2013-02-22, 03:03:04,VALID,915.967,VALID,0,VALID,95.7501,VALID,0,VALID,17.8535,VALID,119,VALID,0,
2013-02-22, 03:04:04,VALID,915.954,VALID,0,VALID,95.7806,VALID,0,VALID,17.8535,VALID,119,VALID,0,
2013-02-22, 03:05:04,VALID,915.904,VALID,0,VALID,95.9559,VALID,0,VALID,17.8131,VALID,119,VALID,0,
2013-02-22, 03:06:04,VALID,915.93,VALID,0,VALID,96.0703,VALID,0,VALID,17.8535,VALID,119,VALID,0,
2013-02-22, 03:07:04,VALID,915.912,VALID,0,VALID,96.0855,VALID,0,VALID,17.873,VALID,119,VALID,0,
2013-02-22, 03:08:04,VALID,915.9,VALID,0,VALID,96.116,VALID,0,VALID,17.873,VALID,119,VALID,0,
2013-02-22, 03:09:04,VALID,915.85,VALID,0,VALID,96.1236,VALID,0,VALID,17.8925,VALID,119,VALID,0,
2013-02-22, 03:10:04,VALID,915.824,VALID,0,VALID,96.2533,VALID,0,VALID,17.9704,VALID,119,VALID,0,
2013-02-22, 03:11:04,VALID,915.851,VALID,0,VALID,96.1313,VALID,0,VALID,18.0094,VALID,119,VALID,0,
2013-02-22, 03:12:04,VALID,915.862,VALID,0,VALID,96.0017,VALID,0,VALID,17.9886,VALID,132,VALID,0,
2013-02-22, 03:13:04,VALID,915.838,VALID,0,VALID,95.834,VALID,0,VALID,17.9704,VALID,132,VALID,0,
2013-02-22, 03:14:04,VALID,915.837,VALID,0,VALID,95.7958,VALID,0,VALID,17.9314,VALID,132,VALID,0,
2013-02-22, 03:15:04,VALID,915.814,VALID,0,VALID,95.7958,VALID,0,VALID,17.9314,VALID,132,VALID,0,
2013-02-22, 03:16:04,VALID,915.848,VALID,0,VALID,95.8263,VALID,0,VALID,17.9328,VALID,132,VALID,0,
2013-02-22, 03:17:04,VALID,915.835,VALID,0,VALID,95.8645,VALID,0,VALID,17.9119,VALID,132,VALID,0,
2013-02-22, 03:18:04,VALID,915.847,VALID,0,VALID,95.895,VALID,0,VALID,17.9119,VALID,132,VALID,0,
2013-02-22, 03:19:04,VALID,915.868,VALID,0,VALID,95.895,VALID,0,VALID,17.9119,VALID,132,VALID,0,
2013-02-22, 03:20:04,VALID,915.856,VALID,0,VALID,95.9178,VALID,0,VALID,17.9314,VALID,132,VALID,0,
2013-02-22, 03:21:04,VALID,915.865,VALID,0,VALID,95.6739,VALID,0,VALID,17.9301,VALID,132,VALID,0,
2013-02-22, 03:22:04,VALID,915.874,VALID,0,VALID,95.6129,VALID,0,VALID,17.9119,VALID,132,VALID,0,
2013-02-22, 03:23:04,VALID,915.87,VALID,0,VALID,95.6891,VALID,0,VALID,17.9106,VALID,132,VALID,0,
2013-02-22, 03:24:04,VALID,915.86,VALID,0,VALID,95.7044,VALID,0,VALID,17.9106,VALID,132,VALID,0,
2013-02-22, 03:25:04,VALID,915.866,VALID,0,VALID,95.6662,VALID,0,VALID,17.9509,VALID,132,VALID,0,
2013-02-22, 03:26:04,VALID,915.86,VALID,0,VALID,95.6281,VALID,0,VALID,17.9704,VALID,132,VALID,0,
2013-02-22, 03:27:04,VALID,915.877,VALID,0,VALID,95.5976,VALID,0,VALID,17.9704,VALID,132,VALID,0,
2013-02-22, 03:28:04,VALID,915.872,VALID,0,VALID,95.59,VALID,0,VALID,17.9704,VALID,132,VALID,0,
2013-02-22, 03:29:04,VALID,915.876,VALID,0,VALID,95.59,VALID,0,VALID,17.9899,VALID,132,VALID,0,
2013-02-22, 03:30:04,VALID,915.869,VALID,0,VALID,95.5138,VALID,0,VALID,18.0108,VALID,132,VALID,0,
2013-02-22, 03:31:04,VALID,915.884,VALID,0,VALID,95.4528,VALID,0,VALID,17.9704,VALID,132,VALID,0,
2013-02-22, 03:32:04,VALID,915.873,VALID,0,VALID,95.2698,VALID,0,VALID,17.9119,VALID,132,VALID,0,
2013-02-22, 03:33:04,VALID,915.833,VALID,0,VALID,95.3232,VALID,0,VALID,17.8938,VALID,132,VALID,0,
2013-02-22, 03:34:04,VALID,915.88,VALID,0,VALID,95.3384,VALID,0,VALID,17.873,VALID,132,VALID,0,
2013-02-22, 03:35:04,VALID,915.852,VALID,0,VALID,95.4223,VALID,0,VALID,17.873,VALID,132,VALID,0,
2013-02-22, 03:36:04,VALID,915.865,VALID,0,VALID,95.5595,VALID,0,VALID,17.8716,VALID,132,VALID,0,
2013-02-22, 03:37:04,VALID,915.841,VALID,0,VALID,95.651,VALID,0,VALID,17.9119,VALID,132,VALID,0,
2013-02-22, 03:38:04,VALID,915.842,VALID,0,VALID,95.6967,VALID,0,VALID,17.9301,VALID,140,VALID,0,
2013-02-22, 03:39:04,VALID,915.848,VALID,0,VALID,95.7349,VALID,0,VALID,17.9691,VALID,140,VALID,0,
2013-02-22, 03:40:04,VALID,915.813,VALID,0,VALID,95.7882,VALID,0,VALID,17.9691,VALID,140,VALID,0,
2013-02-22, 03:41:04,VALID,915.819,VALID,0,VALID,95.7958,VALID,0,VALID,17.9691,VALID,140,VALID,0,
2013-02-22, 03:42:04,VALID,915.833,VALID,0,VALID,95.8263,VALID,0,VALID,18.0289,VALID,140,VALID,0,
2013-02-22, 03:43:04,VALID,915.84,VALID,0,VALID,95.6586,VALID,0,VALID,18.0094,VALID,140,VALID,0,
2013-02-22, 03:44:04,VALID,915.819,VALID,0,VALID,95.5824,VALID,0,VALID,18.0094,VALID,124,VALID,0,
2013-02-22, 03:45:04,VALID,915.815,VALID,0,VALID,95.5824,VALID,0.107441,VALID,17.9886,VALID,119,VALID,0,
2013-02-22, 03:46:04,VALID,915.798,VALID,0,VALID,95.5138,VALID,0,VALID,18.0094,VALID,119,VALID,0,
2013-02-22, 03:47:04,VALID,915.823,VALID,0,VALID,95.4604,VALID,0,VALID,17.9899,VALID,122,VALID,0,
2013-02-22, 03:48:04,VALID,915.803,VALID,0,VALID,95.4299,VALID,0,VALID,17.9899,VALID,126,VALID,0,
2013-02-22, 03:49:04,VALID,915.81,VALID,0,VALID,95.4299,VALID,0,VALID,17.9301,VALID,126,VALID,0,
2013-02-22, 03:50:04,VALID,915.807,VALID,0,VALID,95.4223,VALID,0,VALID,17.9106,VALID,126,VALID,0,
2013-02-22, 03:51:04,VALID,915.808,VALID,0,VALID,95.4909,VALID,0,VALID,17.9704,VALID,126,VALID,0,
2013-02-22, 03:52:04,VALID,915.809,VALID,0,VALID,95.3003,VALID,0,VALID,17.8911,VALID,126,VALID,0,
2013-02-22, 03:53:04,VALID,915.846,VALID,0,VALID,95.4147,VALID,0,VALID,17.9106,VALID,126,VALID,0,
2013-02-22, 03:54:04,VALID,915.806,VALID,0,VALID,95.3842,VALID,0,VALID,17.9301,VALID,126,VALID,0,
2013-02-22, 03:55:04,VALID,915.782,VALID,0,VALID,95.3156,VALID,0,VALID,17.9301,VALID,126,VALID,0,
2013-02-22, 03:56:04,VALID,915.79,VALID,0,VALID,95.2851,VALID,0,VALID,17.9886,VALID,126,VALID,0,
2013-02-22, 03:57:04,VALID,915.784,VALID,0,VALID,94.9954,VALID,0,VALID,17.9496,VALID,126,VALID,0,
2013-02-22, 03:58:04,VALID,915.775,VALID,0,VALID,94.8277,VALID,0,VALID,17.9106,VALID,126,VALID,0,